Regional Weather Roundup
Issued by NWS

Home | Current Version | Previous Version | Graphics & Text | Print | Product List | Glossary On
Versions: 1 2 3 4 5 6 7 8 9 10 11 12 13 14 15 16 17 18 19 20 21 22 23 24 25 26 27
000
ASUS45 KBOU 220907
RWRCO

WEATHER ROUNDUP FOR COLORADO
NATIONAL WEATHER SERVICE DENVER/BOULDER CO
300 AM MDT THU JUN 22 2017

NOTE: "FAIR" INDICATES FEW OR NO CLOUDS BELOW 12000 FEET WITH NO
SIGNIFICANT WEATHER AND/OR OBSTRUCTIONS TO VISIBILITY.

COZ001>005-013-030-031-221000-
...NORTHWEST COLORADO...

CITY           SKY/WX    TMP DP  RH WIND       PRES   REMARKS
CRAIG          FAIR      67  44  43 S12       30.03F
HAYDEN         FAIR      75  30  19 S15G21    30.05F
MEEKER         FAIR      65  41  41 NE8       30.07F
RABBIT EARS PA LGT RAIN  46  36  66 W12G28    30.44R
STEAMBOAT SPGS FAIR      51  43  76 E8        30.18R
WALDEN         FAIR      46  36  66 SE7       30.20S
$$

COZ006>008-011-221000-
...WEST CENTRAL VALLEYS...

CITY           SKY/WX    TMP DP  RH WIND       PRES   REMARKS
GRAND JUNCTION FAIR      75  39  27 SE5       29.92S
MONTROSE       FAIR      64  39  39 SE8       30.01F
EAGLE          FAIR      59  37  44 E10       30.15R
RIFLE          FAIR      71  38  29 SE12      30.01F
DELTA          FAIR      72  37  28 NE9       29.97F
NUCLA          FAIR      64  32  29 E5        30.05S
$$

COZ017>023-064>068-221000-
...SOUTHWEST COLORADO...

CITY           SKY/WX    TMP DP  RH WIND       PRES   REMARKS
DURANGO        FAIR      58  34  40 NE3       30.09F
CORTEZ         FAIR      55  41  59 E6        30.03S
PAGOSA SPRINGS FAIR      54  33  45 CALM      30.19S
TELLURIDE      FAIR      58  32  37 SE10      30.32F
WOLF CREEK PAS FAIR      54  27  35 CALM      30.59F
$$

COZ009-010-012-014-032>034-037-058>063-221000-
...CENTRAL COLORADO...

CITY           SKY/WX    TMP DP  RH WIND       PRES   REMARKS
ASPEN          FAIR      56  36  47 SW5       30.18F
BUENA VISTA    FAIR      53  32  44 W7        30.22F
COPPER MTN     FAIR      55  25  30 W13       30.53S
BERTHOUD PASS  FAIR      46  34  61 NW20      30.54S
COTTONWOOD PAS FAIR      64  23  20 S3        30.36F
GUNNISON       FAIR      50  40  68 CALM      30.23S
KREMMLING      NOT AVBL
LEADVILLE      FAIR      43  28  55 NE3       30.36S
MONARCH PASS   FAIR      54  27  35 W12       30.64F
SALIDA         FAIR      58  33  39 W5        30.27S
SUNLIGHT       FAIR      54  30  40 N3        30.46F
WILKERSON PASS FAIR      54  28  37 W6        30.49F
$$

COZ069>075-221000-
...SAN LUIS VALLEY/SANGRE DE CRISTO MOUNTAINS...

CITY           SKY/WX    TMP DP  RH WIND       PRES   REMARKS
ALAMOSA        FAIR      51  44  77 SW3       30.17F
DEL NORTE      FAIR      59  32  36 W15       30.21F
LA VETA PASS   FAIR      59  32  36 S7        30.49F
SAGUACHE       FAIR      59  32  36 N14       30.21S
$$

COZ035-036-038>040-221000-
...NORTHERN COLORADO FRONT RANGE...

CITY           SKY/WX    TMP DP  RH WIND       PRES   REMARKS
DENVER INTL AP FAIR      72  38  29 SW16      29.92F
DMNS CITY PARK   N/A     71  40  32 SW5       29.92F
AURORA         PTCLDY    71  38  30 SW10      29.95F
FRONT RANGE AP FAIR      73  37  27 S13G20    29.94F
ERIE MUNI ARPT FAIR      68  38  32 CALM      29.90S
BOULDER MUN AP FAIR      75  36  23 SW5       29.91S
CENTENNIAL     FAIR      67  40  37 SE7       29.97F
BROOMFIELD     FAIR      72  36  26 SW6       29.95S
FORT COLLINS   FAIR      69  45  41 N7        29.88F
LONGMONT       FAIR      70  39  32 W8        29.91R
$$

COZ041-046-047-076>085-087-088-221000-
...PIKES PEAK/PALMER DIVIDE AND SOUTHERN FOOTHILLS...

CITY           SKY/WX    TMP DP  RH WIND       PRES   REMARKS
COLO. SPRINGS  FAIR      67  39  35 N6        30.02F
A. F. ACADEMY  CLOUDY    55  40  56 N9        30.04F
SCHRIEVER AFB  NOT AVBL
CHEYENNE MTN   NOT AVBL
ELLICOTT       FAIR     N/A N/A N/A CALM      30.00F
FALCON           N/A     66  33  29 W15       30.08F
FORT CARSON    FAIR      65  39  38 N7        29.98F
LIMON          FAIR      53  40  61 N5        29.94F
MONUMENT HILL  FAIR      63  34  34 SW10      30.10F
CANON CITY     CLEAR     75  39  27 W16       29.95F
WALSENBURG     FAIR      64  41  42 SW6       30.02S
TRINIDAD       FAIR      70  42  36 SW15      30.01F
$$

COZ042>045-048>051-090-091-221000-
...NORTHEAST COLORADO...

CITY           SKY/WX    TMP DP  RH WIND       PRES   REMARKS
GREELEY ARPT   FAIR      61  49  64 CALM      29.87S
AKRON          FAIR      68  41  37 SW13      29.85F
BURLINGTON     FAIR      71  54  54 SW18G26   29.84F
WRAY           FAIR      68  50  52 W6        29.79F
YUMA           FAIR      61  45  55 SW8       29.81F
STERLING       FAIR      63  50  63 S3        29.79S
HOLYOKE        NOT AVBL
FORT MORGAN    FAIR      64  41  44 W6        29.86R
$$

COZ086-089-092>099-221000-
...SOUTHEAST COLORADO...

CITY           SKY/WX    TMP DP  RH WIND       PRES   REMARKS
PUEBLO         FAIR      63  48  58 SE5       29.91S
LA JUNTA       FAIR      74  50  42 SW10      29.89F
LAMAR          FAIR      75  55  49 SW25G33   29.83F
SPRINGFIELD      N/A     66  58  75 SW22G29   29.94F
$$




USA.gov is the U.S. government's official web portal to all federal, state and local government web resources and services.